Temp
78 78 77 74 73 73 73 75 74 73 72 70 69 69 67 66 65 65 65 65 64 63
78 77 76 72 74 74 74 76 73 74 72 70 69 69 67 66 65 65 64 64 64 64
78 78 77 74 73 72 73 75 73 73 72 70 69 69 67 65 65 65 64 64 63 63
78 78 77 75 74 74 74 73 72 73 72 71 70 69 68 66 65 65 65 65 64 64
79 78 77 77 75 76 75 74 74 73 72 72 71 70 69 68 69 66 64 65 64 65
79 77 77 78 77 75 76 75 74 74 73 72 71 70 70 70 68 67 67 65 65 65
79 78 77 79 78 77 77 76 75 74 74 73 73 72 71 70 69 68 68 67 66 65
79 80 78 78 78 78 76 77 75 73 73 73 73 73 71 71 70 69 68 67 67 67
79 79 78 77 77 76 76 76 73 72 72 71 73 69 68 72 71 69 69 66 65 66
79 78 78 78 76 75 75 76 73 73 72 71 73 65 66 69 72 69 67 67 67 67
78 78 78 77 76 76 76 74 75 71 72 72 72 64 63 67 70 68 68 69 68 68
79 78 77 76 76 76 77 75 74 73 71 72 71 61 61 64 69 68 68 69 69 68
79 78 77 77 77 77 78 79 77 74 73 70 71 59 60 64 70 67 67 68 67 64
81 79 79 78 78 77 77 78 76 74 73 71 71 62 57 60 68 68 67 67 63 63
MSLP
1010.34 1010.92 1011.61 1012.27 1012.74 1013.12 1013.47 1013.71 1014.12 1014.49 1014.87 1015.33 1015.87 1016.19 1016.68 1017.22 1017.73 1018.04 1018.27 1018.57 1018.80 1019.03
1009.68 1010.28 1010.95 1011.48 1011.89 1012.31 1012.75 1013.17 1013.57 1014.00 1014.45 1015.02 1015.49 1015.84 1016.41 1016.94 1017.48 1017.81 1018.15 1018.38 1018.54 1018.79
1008.74 1009.46 1010.13 1010.82 1011.22 1011.52 1012.01 1012.52 1013.02 1013.59 1014.07 1014.70 1015.31 1015.65 1016.17 1016.66 1017.04 1017.52 1017.81 1018.10 1018.40 1018.63
1007.97 1008.75 1009.55 1010.09 1010.43 1010.70 1011.32 1011.90 1012.45 1012.95 1013.61 1014.28 1014.84 1015.30 1015.79 1016.12 1016.65 1017.16 1017.44 1017.74 1018.10 1018.32
1006.87 1007.87 1008.64 1009.10 1009.63 1010.03 1010.47 1011.12 1011.68 1012.36 1013.09 1013.69 1014.17 1014.70 1015.15 1015.60 1016.04 1016.56 1017.06 1017.22 1017.60 1017.82
1006.00 1006.78 1007.37 1007.96 1008.60 1009.25 1009.70 1010.24 1010.97 1011.59 1012.24 1012.88 1013.42 1013.96 1014.41 1014.81 1015.33 1015.70 1016.11 1016.47 1016.91 1017.22
1004.88 1005.44 1006.15 1006.82 1007.53 1008.16 1008.73 1009.35 1009.93 1010.57 1011.19 1011.80 1012.44 1012.94 1013.53 1014.08 1014.50 1014.92 1015.38 1015.74 1016.17 1016.55
1003.74 1004.21 1005.14 1005.91 1006.41 1007.04 1007.79 1008.27 1008.96 1009.71 1010.39 1010.92 1011.47 1011.93 1012.57 1013.09 1013.58 1014.15 1014.65 1015.12 1015.41 1015.75
1002.73 1003.31 1003.91 1004.88 1005.63 1006.27 1006.84 1007.39 1008.13 1008.62 1009.20 1009.84 1010.26 1010.74 1011.36 1011.90 1012.63 1013.28 1013.86 1014.47 1015.02 1015.42
1001.65 1002.25 1002.85 1003.92 1004.84 1005.28 1005.71 1006.37 1006.91 1007.42 1008.03 1008.54 1009.10 1009.74 1010.30 1011.09 1011.77 1012.39 1012.88 1013.53 1014.13 1014.64
1000.53 1000.94 1001.99 1002.91 1003.47 1004.13 1004.69 1005.01 1005.57 1006.23 1006.79 1007.62 1008.11 1008.69 1009.56 1010.33 1011.03 1011.67 1012.22 1012.62 1013.15 1013.72
999.47 1000.12 1000.96 1001.52 1001.94 1002.91 1003.90 1004.42 1004.65 1005.20 1006.13 1006.78 1007.37 1008.10 1008.92 1009.93 1010.77 1011.31 1011.76 1012.32 1012.69 1013.11
997.99 999.05 999.60 999.85 1000.58 1001.30 1002.19 1002.77 1003.85 1004.53 1004.99 1005.63 1006.58 1007.45 1008.29 1009.23 1010.24 1010.95 1011.46 1011.83 1012.13 1012.61
996.93 997.47 997.90 998.83 1000.01 1000.52 1001.31 1002.26 1003.02 1003.62 1004.23 1005.06 1005.79 1006.87 1007.71 1008.72 1009.61 1010.24 1011.13 1011.80 1012.14 1012.54
Wind_Speed
16 11 10 9 6 6 6 7 9 9 9 7 7 7 6 4 4 5 4 6 4 3
14 14 11 10 9 7 7 7 9 11 10 8 8 8 7 5 6 5 5 5 5 3
16 15 12 10 11 9 8 9 10 10 10 8 8 8 8 5 5 6 4 4 6 4
15 14 12 12 11 12 10 10 10 11 11 10 10 9 9 7 7 7 6 5 6 6
17 14 14 14 12 12 13 11 11 11 11 11 11 10 11 10 8 9 8 7 6 7
18 16 17 17 15 13 14 13 12 12 13 13 13 12 12 11 10 10 9 8 8 7
19 19 17 17 16 15 15 14 14 14 14 14 14 13 13 12 11 10 9 9 9 8
19 18 17 17 16 15 15 15 14 13 13 13 13 11 13 13 13 12 10 8 9 8
19 18 18 17 16 15 15 15 13 14 15 15 11 16 19 17 13 12 12 10 6 6
19 19 18 16 15 16 17 15 15 16 16 16 16 18 21 20 12 11 11 10 10 7
20 20 18 17 18 17 15 17 16 14 16 14 13 18 19 22 13 9 10 10 10 11
19 19 18 19 20 16 15 14 16 13 14 16 12 17 19 17 11 8 8 7 8 9
20 19 20 21 20 18 17 17 12 13 15 14 12 16 19 17 8 8 6 7 7 12
19 20 21 18 15 16 16 14 14 15 12 11 12 11 19 18 10 8 7 6 4 4
Wind_Direction
199 198 200 197 192 195 189 197 184 190 189 179 169 172 171 177 176 180 189 178 171 166
197 199 194 194 196 189 189 193 187 189 184 175 179 178 175 178 183 181 189 196 179 167
198 200 193 189 194 189 189 192 182 184 185 176 182 182 178 180 182 186 186 187 183 182
200 199 193 195 196 192 184 189 184 184 184 182 186 184 187 189 181 193 191 189 190 199
197 194 195 203 199 192 193 191 186 183 185 188 192 190 194 194 192 194 198 202 193 211
198 194 198 205 199 196 195 192 191 188 190 191 193 192 201 196 194 199 201 195 195 200
199 198 200 204 204 196 199 193 192 194 195 195 195 196 196 195 199 203 203 202 200 194
199 200 201 204 205 204 199 200 195 189 193 193 197 199 194 196 201 201 203 202 208 206
199 199 201 202 202 200 202 203 188 192 191 192 199 196 192 194 198 200 201 204 197 211
198 202 202 197 198 202 201 194 196 196 191 197 203 188 192 193 197 194 198 192 204 211
199 201 198 196 204 205 200 200 199 193 195 196 206 189 187 190 199 192 191 194 189 204
200 202 198 199 203 203 201 200 204 193 187 201 205 179 183 181 190 186 189 196 197 204
197 200 201 202 202 199 201 207 197 195 198 197 189 179 181 177 177 182 188 202 194 195
200 201 205 201 202 199 198 199 195 197 193 180 180 172 166 168 167 178 188 201 188 199